User: anonymous   Login
Location: Brno
(49.2000°N, 16.6330°E)
Time: 23:26:58
(UTC+02:00)
Language:

BREEZE M DEB (TANK) - Orbit

View from above orbital plane
View from above orbital plane
View from above satellite
View from above satellite

Ground track
Ground track

The orbit data is extracted from the following two-line orbital elements,

1 28359U 04022B   15245.51983253  .00003342  00000-0  39290-3 0  9996
2 28359  49.5298 337.9045 4696013  33.4334  25.5061  6.15951296244852
Epoch (UTC): 02 September 2015 12:28:33
Eccentricity: 0.4696013
inclination: 49.5298°
perigee height: 289 km
apogee height: 12096 km
right ascension of ascending node: 337.9045°
argument of perigee: 33.4334°
revolutions per day: 6.15951296
mean anomaly at epoch: 25.5061°
orbit number at epoch: 24485

The dashed part of the orbit path shows where the satellite is in the earth's shadow,  

DLR